Regional Weather Roundup
Issued by NWS

Home | Current Version | Previous Version | Text Only | Print | Product List | Glossary Off
Versions: 1 2 3 4 5 6 7 8 9 10 11 12 13 14 15 16 17 18 19 20 21 22 23 24 25 26 27 28 29 30 31 32 33 34 35 36 37 38 39 40 41 42 43 44 45 46 47 48 49 50

942
ASUS43 KLMK 220202
RWRKY
KENTUCKY REGIONAL WEATHER ROUNDUP
NATIONAL WEATHER SERVICE LOUISVILLE KY
900 PM EST SUN JAN 21 2018

NOTE "FAIR" INDICATES FEW OR NO CLOUDS BELOW 12,000 FEET
WITH NO SIGNIFICANT WEATHER AND/OR OBSTRUCTIONS TO VISIBILITY.

KYZ001>023-026-027-061>063-070>075-220300-
WESTERN AND SOUTH CENTRAL KENTUCKY

CITY           SKY/WX    TMP DP  RH WIND       PRES   REMARKS
PADUCAH        FAIR      58  50  75 SE12      29.93F
HENDERSON      CLOUDY    53  49  86 SE9       29.97F
OWENSBORO      CLOUDY    50  48  93 SE7       29.99F
HOPKINSVILLE   FAIR      60  46  58 S9        30.00F
BOWLING GREEN  MOCLDY    57  48  72 S7        30.04F
GLASGOW        NOT AVBL
$$

KYZ024-025-028>034-038-045-046-053-220300-
NORTH CENTRAL KENTUCKY

CITY           SKY/WX    TMP DP  RH WIND       PRES   REMARKS
LOUISVILLE/SDF MOCLDY    53  49  86 SE7       30.02F
LOUISVILLE/LOU FAIR      55  51  86 SE5       30.03F
FORT KNOX      CLOUDY    55  52  88 S8        30.04F
$$

KYZ035>037-039>044-047>052-055>060-089>105-220300-
NORTHEAST KENTUCKY

CITY           SKY/WX    TMP DP  RH WIND       PRES   REMARKS
LEXINGTON      CLOUDY    56  49  77 S9        30.07S
COVINGTON      CLOUDY    52  50  93 SE6       30.03F
FRANKFORT      CLOUDY    56  48  74 S5        30.04S
$$

KYZ054-064>069-076>088-106>120-220300-
SOUTHEAST KENTUCKY

CITY           SKY/WX    TMP DP  RH WIND       PRES   REMARKS
JACKSON        CLOUDY    56  44  64 CALM      30.11F
LONDON         CLOUDY    56  42  59 SE3       30.11S
SOMERSET       NOT AVBL
MIDDLESBORO    CLOUDY    46  41  82 CALM      30.16S
MONTICELLO     MOCLDY    54  43  66 NE7       30.12S
$$





USA.gov is the U.S. government's official web portal to all federal, state and local government web resources and services.